Theta_e
285 284 284 283 283 282 282 282 281 281 281 281 281 281 281 280 280 279 278 278 278 279
285 284 283 282 282 282 281 281 280 280 280 280 280 279 279 279 278 277 277 277 277 278
285 284 284 283 281 281 280 280 279 279 278 279 279 279 278 277 277 277 276 277 277 277
284 283 283 281 281 280 280 279 279 279 279 278 278 278 277 277 276 276 276 276 276 276
283 282 281 281 280 280 280 279 279 279 278 278 277 277 277 276 276 276 276 276 275 275
282 282 281 280 280 280 279 278 278 278 277 277 277 276 276 276 276 275 275 275 275 275
282 282 281 280 280 279 279 278 278 278 277 277 276 276 276 276 275 275 275 275 275 275
282 282 281 280 280 279 278 278 278 277 276 276 275 276 275 276 275 275 275 275 276 275
281 281 281 280 279 279 278 277 277 277 276 274 275 280 281 277 275 276 275 274 275 275
282 281 281 280 280 279 278 278 277 276 275 275 275 281 283 282 276 275 275 275 275 275
282 281 281 280 279 279 278 277 277 276 276 275 275 281 283 283 277 276 275 274 274 274
282 282 280 280 279 279 278 277 276 277 275 275 275 281 283 282 276 275 274 274 274 274
283 283 281 281 280 280 279 278 277 276 275 275 274 279 282 282 275 271 273 273 274 276
283 283 283 282 281 280 278 277 275 274 273 272 272 272 281 282 276 274 271 271 271 273
Wind_Speed
12 9 9 9 9 7 6 6 5 6 7 6 6 7 6 5 5 5 5 7 5 4
11 12 11 9 6 6 7 7 7 7 7 6 7 7 7 5 5 5 4 5 5 4
12 10 10 10 10 9 7 8 8 7 6 7 6 7 7 5 4 5 3 3 5 3
11 10 10 10 10 10 9 10 9 9 8 7 7 7 7 6 6 6 5 3 4 3
11 11 11 11 10 10 11 8 9 8 7 7 7 6 7 7 6 6 5 6 5 4
11 12 13 12 12 10 10 9 7 8 8 8 7 7 6 6 6 6 5 6 5 5
13 13 13 12 12 11 10 10 9 8 7 7 7 6 6 6 6 5 5 5 5 5
11 10 10 10 11 10 10 9 8 8 6 7 7 6 7 7 6 6 5 5 5 5
10 10 10 10 10 10 10 8 8 8 8 8 6 14 16 10 6 6 6 6 5 4
11 12 11 10 10 11 12 9 9 8 8 9 7 17 16 16 6 6 6 5 4 4
12 12 11 11 11 10 9 11 9 10 10 8 8 17 18 17 6 6 6 5 6 6
13 12 12 13 12 9 9 8 10 8 9 10 8 19 18 15 6 7 8 7 7 7
13 14 14 13 12 10 8 11 8 9 9 9 9 18 18 16 5 6 5 5 7 14
14 14 13 12 9 11 10 7 8 8 6 8 9 9 19 20 5 6 5 7 6 6
Wind_Direction
150 150 151 152 153 149 147 143 136 118 107 114 113 104 100 97 96 99 92 94 85 88
156 158 159 147 139 140 134 139 132 124 126 133 125 118 109 107 110 109 106 103 107 107
163 156 150 148 146 147 144 138 138 131 140 140 133 125 112 110 118 112 114 107 112 115
160 152 147 149 152 155 148 148 147 158 157 148 137 128 125 134 142 134 136 140 141 136
155 152 153 157 160 158 156 153 155 158 157 147 134 137 148 158 159 160 168 168 167 186
161 162 165 165 164 161 153 158 156 164 164 155 150 153 166 168 170 177 184 184 190 199
171 173 173 166 164 163 162 161 171 175 160 156 156 161 171 171 176 191 200 200 205 209
175 171 163 165 167 160 162 170 171 159 164 157 166 172 178 181 187 195 209 221 221 218
170 168 169 168 167 164 169 167 168 177 174 172 185 194 197 186 184 197 213 221 221 229
174 176 175 169 172 178 180 171 181 182 182 194 195 203 203 204 195 203 211 211 219 232
177 180 174 175 184 182 174 183 185 192 198 198 208 210 211 211 192 207 216 209 217 230
176 177 179 184 185 184 179 187 195 194 194 200 210 214 215 215 194 213 221 216 220 227
177 186 188 188 183 189 194 207 194 200 199 202 215 216 218 220 181 210 222 224 235 235
186 187 188 183 185 191 192 185 191 203 200 207 207 212 224 229 192 214 215 228 231 233